Hemavan current weather conditions

sailwx.info

Air temperature -22.0° C
Visibility: greater than 0.2 NM
Dewpoint -24.0° C
Present weather: Snow grains.

Last reported at 2017-Nov-19 18:50 UTC.
Time now 2017-Nov-19 20:08 UTC

Location: N 65°48' E 015°05'.
View on Google Maps.

See reports from other nearby stations

  
Tides and Currents Weather Stations Pressure Air Temp Water Temp Dewpoint Dewpoint Depression Visibility Wind Speed Wind Dir Waves Ship Positions
date/time (UTC)wind fromknots sea level pressurealtimeterstation pressurevisibilityair tempwater tempwave heightnotes
2017-Nov-19 18:50 0.2-22.0 Snow grains.
2017-Nov-19 18:20 0.3-21.0 Light snow.
2017-Nov-19 17:50 5.4-21.0
2017-Nov-19 17:20 5.4-20.0
2017-Nov-19 16:50 5.4-20.0
2017-Nov-19 16:20 3.8-19.0
2017-Nov-19 15:50 0.2-19.0 Light snow.
2017-Nov-19 15:20 0.2-19.0 Snow.
2017-Nov-19 14:50 0.1-19.0
2017-Nov-19 14:20 0.2-18.0
2017-Nov-19 13:50 0.1-18.0 Heavy snow.
2017-Nov-19 13:20 0.1-17.0 Snow.
2017-Nov-19 12:50 0.2-17.0 Snow.
2017-Nov-19 12:20 0.2-17.0 Snow grains.
2017-Nov-19 11:50 0.1-17.0 Snow grains.
2017-Nov-19 11:20 5.4-17.0 Light snow.
2017-Nov-19 10:50 0.5-15.0 Light snow.
2017-Nov-19 10:20 0.4-16.0 Light snow.
2017-Nov-19 09:50 0.2-16.0 Snow.
2017-Nov-19 09:20 5.4-16.0 Light snow.
2017-Nov-19 08:50 5.4-18.0 Light snow.
2017-Nov-19 08:20 5.4-17.0 Fog.
2017-Nov-19 07:50 5.4-16.0
2017-Nov-19 07:20 5.4-16.0
2017-Nov-19 06:50 5.4-15.0
2017-Nov-19 06:20 5.4-14.0
2017-Nov-19 05:50 5.4-12.0
2017-Nov-19 05:20 200 0 5.4-11.0
2017-Nov-19 04:50 5.4-11.0 Snow grains.
2017-Nov-19 04:20 5.4-11.0 Light snow.
2017-Nov-19 03:50 5.4-10.0 Snow grains.
2017-Nov-19 03:20 170 1 5.4-10.0
2017-Nov-19 02:50 5.4-10.0 Snow grains.
2017-Nov-19 02:20 5.4-11.0
2017-Nov-19 01:50 5.4-11.0
2017-Nov-19 01:20 210 1 5.4-10.0 Light snow.
2017-Nov-19 00:50 5.4-11.0
2017-Nov-19 00:20 5.4-11.0
2017-Nov-18 23:50 5.4-11.0
2017-Nov-18 23:20 5.4-10.0
2017-Nov-18 22:50 5.4-10.0
2017-Nov-18 22:20 310 2 5.4-9.0
2017-Nov-18 21:50 5.4-7.0 Light snow.
2017-Nov-18 21:20 150 5 5.4-7.0 Light snow.
2017-Nov-18 20:50 160 6 5.4-6.0 Light snow.
2017-Nov-18 20:20 170 4 5.4-6.0
2017-Nov-18 19:50 5.4-5.0
2017-Nov-18 19:20 010 2 5.4-6.0
2017-Nov-18 18:50 5.4-5.0
2017-Nov-18 18:20 110 4 5.4-4.0
2017-Nov-18 17:50 130 6 5.4-4.0 Light snow.
2017-Nov-18 17:20 130 5 5.4-5.0
2017-Nov-18 16:50 140 2 5.4-4.0 Light snow.
2017-Nov-18 16:20 120 6 5.4-4.0 Light snow.
2017-Nov-18 15:50 5.4-5.0 Light snow.
2017-Nov-18 15:20 130 2 5.4-5.0 Light snow.
2017-Nov-18 14:50 140 5 5.4-4.0 Light snow.
2017-Nov-18 14:20 130 6 5.4-5.0
2017-Nov-18 13:50 5.4-5.0
2017-Nov-18 13:20 5.4-5.0
2017-Nov-18 12:50 5.4-4.0
2017-Nov-18 12:20 5.4-4.0 Snow grains.
2017-Nov-18 11:50 080 4 5.4-4.0 Snow grains.
2017-Nov-18 11:20 080 6 5.4-4.0 Snow grains.
2017-Nov-18 10:50 150 4 2.1-4.0 Light snow.
2017-Nov-18 10:20 160 7 2.2-4.0 Light snow.
2017-Nov-18 09:50 140 6 1.0-4.0 Light snow.
2017-Nov-18 09:20 130 5 1.0-4.0 Light snow.
2017-Nov-18 08:50 130 5 1.1-4.0 Light snow.
2017-Nov-18 08:20 140 7 0.9-4.0 Light snow.
2017-Nov-18 07:50 140 6 0.7-4.0 Light snow.
2017-Nov-18 07:20 120 6 0.4-4.0 Snow.
2017-Nov-18 06:50 120 6 1.1-4.0 Light snow.
2017-Nov-18 06:20 120 6 2.2-5.0 Light snow.
2017-Nov-18 05:50 120 6 1.0-5.0 Light snow.
2017-Nov-18 05:20 130 6 5.4-5.0 Light snow.
2017-Nov-18 04:50 130 6 1.5-5.0 Light snow.
2017-Nov-18 04:20 140 6 1.5-5.0 Light snow.
2017-Nov-18 03:50 120 6 2.0-5.0 Light snow.
2017-Nov-18 03:20 120 6 2.7-4.0 Light snow.
2017-Nov-18 02:50 130 4 3.8-4.0 Light snow.
2017-Nov-18 02:20 130 6 2.7-5.0 Light snow.
2017-Nov-18 01:50 120 5 1.3-5.0 Light snow.
2017-Nov-18 01:20 160 4 1.0-5.0 Light snow.
2017-Nov-18 00:50 150 2 1.9-5.0 Light snow.
2017-Nov-18 00:20 130 5 1.2-5.0 Light snow.
2017-Nov-17 23:50 130 4 3.8-5.0 Snow grains.
2017-Nov-17 23:20 140 4 5.4-5.0 Snow grains.
2017-Nov-17 22:50 160 5 5.4-5.0 Light snow.
2017-Nov-17 22:20 140 4 2.7-5.0 Light snow.
2017-Nov-17 21:50 1.9-5.0 Light snow.
2017-Nov-17 21:20 130 4 0.9-5.0 Light snow.
2017-Nov-17 20:50 140 4 1.1-6.0 Light snow.
2017-Nov-17 20:20 150 2 3.2-7.0 Light snow.